Wind_Speed
6 6 6 6 6 5 4 4 3 3 3 3 3 4 5 6 7 8 8 9 9 10 10 11 11 12 12 12 12 13 13 13 13 14 15 17 20 21 22 22 19 16 15 15 15 17 18 20 21 21 22 22 23 24 25 26 27 29 30 31 33 34 35 36 36 37 37 36 36 35 34 33 33 33
5 6 6 7 7 7 6 4 4 3 3 3 3 3 4 5 6 7 7 7 8 8 9 10 10 11 12 12 12 13 13 13 14 15 16 18 20 20 23 23 20 15 15 15 15 17 18 20 21 22 22 23 23 24 25 27 28 29 31 32 33 34 35 36 36 36 36 35 35 34 33 33 32 32
4 4 5 6 6 7 6 6 4 3 2 2 2 2 3 4 4 5 5 6 6 7 8 9 10 11 11 11 12 12 13 13 14 14 16 18 19 20 20 20 17 13 13 15 15 16 18 19 21 22 23 23 24 25 26 28 29 31 32 33 34 35 35 36 36 36 36 35 34 33 32 32 32 32
3 4 4 5 6 6 6 6 5 4 2 2 1 1 1 2 3 3 3 4 5 5 7 8 9 10 10 10 10 10 11 12 12 13 15 17 18 17 16 15 13 12 13 14 16 17 19 21 22 23 24 25 26 27 29 30 31 32 33 34 35 35 36 37 37 37 37 36 35 33 32 32 32 32
3 4 4 5 5 6 6 6 6 5 3 1 1 1 1 1 2 2 2 3 3 4 6 7 8 8 8 8 8 9 10 11 11 11 12 14 14 14 13 13 13 12 14 16 18 20 22 24 24 25 26 28 29 30 31 32 33 34 34 34 35 36 36 37 37 37 37 37 36 35 34 33 33 32
4 4 4 4 5 6 6 5 5 4 3 0 1 2 2 2 2 2 1 1 2 3 4 5 6 6 6 6 7 8 10 11 11 11 11 11 11 11 11 12 13 14 15 17 19 22 23 25 26 27 29 30 31 32 33 34 34 35 35 36 36 36 37 37 37 37 37 37 37 36 35 34 33 33
4 5 4 4 5 5 5 5 4 3 2 1 2 3 3 3 2 2 2 1 1 1 2 2 3 3 4 5 6 7 9 10 11 11 11 11 11 11 12 13 14 16 17 18 20 22 24 26 28 30 32 33 34 34 35 36 36 37 37 38 38 38 38 38 37 37 38 38 38 37 36 35 34 34
5 5 5 5 5 5 4 4 3 2 1 1 2 3 3 3 3 3 3 2 1 0 1 0 1 2 4 4 4 5 7 8 9 10 11 11 12 13 14 15 16 17 18 19 21 23 25 26 28 30 31 33 35 36 37 37 38 39 39 40 40 40 40 40 39 39 39 39 39 39 38 37 36 36
6 6 6 5 5 5 4 3 3 2 2 2 3 4 5 4 3 3 3 2 2 1 2 2 1 1 2 3 3 4 7 8 8 10 11 11 12 13 15 17 18 19 19 20 22 24 26 27 29 30 31 32 34 35 37 38 38 39 39 39 39 39 40 40 40 39 39 40 40 40 40 40 39 38
6 6 6 6 6 5 4 3 3 3 3 4 5 6 6 5 4 4 4 3 2 3 3 3 2 1 1 1 3 4 7 8 8 10 11 12 12 13 15 17 19 20 20 22 23 25 26 27 29 31 32 33 34 34 35 37 38 38 38 38 38 38 38 38 38 38 38 38 38 39 40 40 41 40
6 6 6 6 6 6 5 5 4 5 5 5 6 7 7 7 6 6 5 5 4 4 4 4 4 3 1 0 2 4 6 7 7 9 11 12 13 14 15 17 18 19 20 21 23 24 25 26 27 29 31 32 33 34 34 35 36 36 36 37 37 37 36 36 36 36 36 36 37 37 37 38 40 40
7 7 7 7 8 7 7 6 6 7 7 6 6 8 9 8 7 6 6 6 6 5 5 5 5 4 2 1 1 2 5 7 8 9 9 10 12 12 13 15 17 17 17 19 21 23 23 24 26 27 28 29 30 31 32 33 34 35 35 35 36 36 35 35 34 34 35 36 36 35 35 36 37 38
7 8 8 7 8 9 8 8 8 8 8 8 7 8 10 10 9 7 7 7 7 7 6 6 6 5 5 4 3 3 4 6 8 9 9 8 9 10 11 13 16 16 16 18 20 22 22 22 24 26 26 28 28 29 31 32 33 33 34 35 36 36 36 35 34 34 35 35 36 35 35 35 36 37
8 8 9 8 9 9 10 9 9 10 10 9 8 9 10 11 10 9 8 7 7 8 8 8 7 7 7 6 6 6 6 6 7 9 10 9 9 9 10 12 15 17 17 17 18 21 22 21 22 24 25 26 28 29 30 31 31 32 33 34 34 35 36 36 37 36 36 36 35 35 36 36 36 36
9 9 9 9 9 10 11 10 10 11 11 10 9 9 11 12 11 11 9 8 8 9 9 9 9 9 9 9 9 8 8 9 9 10 11 10 11 11 11 12 14 16 17 17 18 20 21 21 22 24 25 25 27 28 29 29 31 31 32 33 34 35 36 37 37 38 38 37 36 36 36 37 37 38
10 9 9 9 9 10 11 11 11 12 12 11 10 10 11 12 13 12 11 10 9 9 10 11 12 11 10 11 11 11 10 10 11 11 12 12 12 12 13 14 16 17 18 17 18 20 22 22 23 24 26 26 26 26 27 28 28 29 29 30 32 34 35 36 37 38 38 38 38 38 38 38 38 38
11 11 10 10 10 11 12 12 12 13 13 12 10 10 11 13 14 13 12 11 11 10 11 12 14 13 12 12 13 14 13 12 12 11 12 14 14 14 15 17 18 19 20 19 18 20 23 23 23 24 25 26 26 26 27 28 28 29 30 30 30 31 32 34 35 37 38 39 39 39 40 40 40 40
13 12 12 11 11 11 11 12 12 13 14 13 11 11 12 14 14 14 14 13 12 12 12 12 14 15 13 13 14 16 16 15 14 13 13 14 16 16 17 19 21 22 23 22 20 21 24 25 24 24 25 25 27 28 28 29 30 30 31 31 31 31 32 33 34 35 36 38 39 40 40 41 42 42
15 14 13 12 12 11 11 12 13 13 14 13 12 12 13 14 15 15 15 15 14 14 14 14 14 14 15 15 16 17 17 17 16 15 16 17 17 17 18 21 22 23 24 24 22 22 24 25 25 26 26 26 28 29 30 30 31 31 32 33 33 33 34 34 35 36 36 37 38 39 40 41 42 43
16 15 14 14 13 12 11 12 12 13 14 14 14 13 14 14 15 15 16 16 16 16 16 15 14 15 16 17 17 18 19 19 18 18 19 19 19 18 19 21 22 23 24 24 24 23 24 25 25 26 27 28 28 29 30 31 31 32 33 35 35 35 36 38 38 38 38 37 38 38 38 39 41 42
18 17 16 14 13 12 12 12 13 13 13 15 15 15 14 14 14 15 17 17 18 18 17 16 16 16 17 18 19 20 20 21 20 20 20 21 20 20 21 22 22 23 24 25 25 25 25 25 26 26 26 28 29 30 31 32 32 33 34 35 36 36 38 39 39 39 38 38 37 37 37 38 39 40
20 18 17 15 14 13 13 12 13 13 14 15 16 16 15 14 14 15 17 17 17 18 18 17 17 17 18 19 20 21 22 23 23 22 22 22 22 23 24 24 23 23 24 25 26 26 26 27 27 26 26 28 30 32 32 33 33 34 34 35 37 38 39 40 40 40 40 40 40 39 39 39 39 40
20 19 18 16 15 14 14 13 13 14 14 15 17 17 17 15 15 16 17 17 16 16 17 17 17 18 18 20 21 22 24 25 25 25 24 25 24 25 27 27 25 24 25 26 26 27 27 29 29 29 27 27 29 31 33 35 35 35 36 37 39 40 40 41 41 41 41 42 42 42 42 42 43 42
21 20 19 17 16 15 15 15 14 14 15 16 17 18 17 17 17 18 18 18 17 16 16 17 18 19 19 21 23 24 25 26 26 26 26 26 26 27 29 29 27 26 28 29 30 29 29 30 30 31 30 30 30 31 32 34 36 37 38 39 40 40 40 40 41 41 42 43 43 43 44 45 46 45
21 20 19 18 18 18 18 18 17 16 16 17 17 17 17 19 20 20 20 20 19 19 19 19 20 21 21 22 24 26 25 25 26 27 27 26 26 27 29 29 28 29 31 33 34 33 32 32 32 31 32 33 33 33 34 35 37 38 39 40 40 40 40 40 40 41 42 43 43 44 45 47 47 47
22 21 20 20 20 20 20 20 19 18 18 18 18 18 19 21 22 22 22 22 22 22 23 23 23 23 23 24 26 26 26 26 28 28 27 26 26 26 26 27 28 30 31 33 34 34 34 33 33 32 33 34 35 36 36 37 38 38 39 40 40 40 39 39 40 41 41 42 43 44 45 47 48 48
23 22 21 21 21 21 22 21 21 20 19 19 20 20 21 22 23 24 24 24 25 25 26 26 25 25 26 26 27 27 27 28 29 28 26 26 26 25 25 27 29 29 29 29 29 29 30 31 32 33 33 34 35 36 37 38 38 38 38 39 39 39 39 40 41 41 41 42 44 46 47 47 47 47
24 23 22 21 21 21 22 22 21 20 20 20 21 22 23 24 25 25 26 27 28 28 28 28 28 29 29 29 28 28 29 30 30 29 28 27 25 25 26 28 29 29 28 28 27 28 29 30 32 34 34 36 37 37 38 39 39 39 38 38 38 40 41 41 42 42 43 44 46 47 48 48 48 47
25 23 22 22 21 21 21 21 21 20 19 20 21 22 24 25 26 27 28 29 29 30 30 31 31 33 32 30 29 30 31 31 31 30 28 25 25 26 28 29 30 29 29 29 29 30 31 32 33 34 35 36 38 39 40 41 40 40 39 39 40 42 43 43 43 43 45 47 48 49 49 49 48 48
24 23 23 23 22 21 20 19 20 19 19 19 20 21 23 25 25 26 27 28 29 30 31 33 35 35 33 32 31 32 32 32 31 28 25 24 25 27 29 30 30 30 30 30 31 31 32 34 35 36 37 38 39 41 42 42 42 41 41 41 42 43 43 42 43 44 47 48 49 49 49 48 48 47
24 24 24 23 22 20 18 17 17 18 18 18 19 20 22 23 24 24 25 27 27 28 29 32 33 32 32 32 32 31 31 30 27 24 22 24 26 28 29 30 31 31 31 32 32 33 34 36 37 37 38 39 41 43 43 43 43 42 42 43 44 44 42 42 43 46 48 48 47 46 46 46 46 45
26 26 25 23 20 18 17 16 16 16 16 16 17 18 20 22 23 24 25 27 28 28 29 31 30 29 28 29 28 27 27 26 25 24 25 26 28 29 31 31 31 32 32 33 34 35 36 37 38 39 40 41 43 44 44 43 43 43 43 44 44 43 43 44 46 48 47 46 44 43 42 43 43 43
27 26 23 21 19 18 17 16 16 16 16 16 17 19 22 23 25 26 27 30 31 32 32 33 32 31 30 29 27 25 26 26 27 27 28 29 29 30 32 32 32 32 33 33 35 36 37 38 39 40 41 43 44 45 44 43 43 44 44 44 43 44 45 46 47 47 46 44 42 40 39 40 40 40
26 25 22 21 20 18 18 18 18 19 19 19 20 24 26 27 29 30 31 34 36 36 36 37 37 37 35 32 29 27 27 28 30 30 30 29 30 30 31 32 33 33 34 35 36 38 38 39 40 41 43 45 45 45 45 44 44 44 45 44 44 45 46 47 46 46 44 42 40 38 38 38 40 41
26 25 23 22 21 20 20 20 21 22 23 23 24 27 29 31 33 35 36 40 42 41 40 41 41 39 36 32 29 28 30 31 32 30 28 27 28 29 31 33 35 35 36 37 38 39 39 40 40 42 44 46 46 46 45 45 45 45 45 46 46 46 46 46 45 44 42 40 39 38 38 39 41 43
25 25 23 22 22 22 22 22 23 25 26 26 27 30 31 33 37 39 41 44 45 42 41 42 42 40 36 32 29 29 31 31 29 26 25 26 28 31 33 35 36 37 38 39 40 40 41 41 42 44 46 47 46 46 46 46 46 46 47 47 47 46 45 44 43 42 41 40 40 41 42 43 44 46
25 24 24 23 23 24 25 25 27 29 29 28 30 32 34 36 40 43 45 46 44 39 37 39 39 37 35 31 29 29 28 28 27 27 28 30 31 33 35 37 37 38 39 40 41 41 42 43 44 46 47 47 46 46 46 46 46 46 47 47 47 46 44 43 42 42 42 42 43 44 45 46 47 48
26 26 27 27 27 28 29 30 31 31 31 32 33 35 37 38 41 44 46 47 44 38 35 35 35 34 33 32 30 29 28 27 28 30 32 32 33 34 37 38 39 40 41 41 42 43 44 45 46 47 48 48 47 46 46 46 46 46 47 46 46 45 43 43 43 43 44 45 47 48 48 49 49 49
29 30 31 32 32 32 33 34 34 34 34 36 37 39 40 41 42 44 46 46 44 39 34 32 31 32 33 33 31 30 29 29 29 32 34 35 36 37 38 40 41 41 42 43 44 46 46 47 48 49 49 48 48 47 48 47 47 47 46 45 45 45 44 44 45 46 46 47 49 51 52 52 52 52
34 35 35 35 35 36 37 37 37 37 38 40 41 42 43 43 43 43 43 42 41 39 35 31 31 32 33 32 30 30 31 31 33 35 37 38 39 40 41 42 42 43 44 45 47 48 49 49 50 50 50 49 49 49 49 49 49 48 47 46 45 45 46 46 47 48 49 50 51 53 54 54 54 54
38 38 37 38 39 40 40 40 40 41 43 43 44 44 43 42 42 41 40 40 40 39 37 34 34 34 34 32 31 33 34 34 36 39 40 41 42 42 43 44 44 45 46 47 48 50 51 52 52 51 50 50 50 50 50 50 50 50 49 48 47 47 48 49 50 50 51 53 54 54 55 55 56 55
41 41 41 42 42 42 42 42 44 45 46 46 46 45 43 41 41 40 39 39 39 39 38 37 36 36 36 35 35 37 38 39 41 41 42 43 44 45 45 46 46 48 49 49 50 51 52 53 53 52 51 51 51 51 51 51 52 53 52 51 50 51 52 53 53 54 55 56 57 56 56 56 56 56
43 43 43 44 44 44 45 46 47 48 49 49 49 47 44 42 41 40 39 38 39 39 39 39 39 39 39 39 40 41 42 43 43 44 44 45 47 47 48 48 49 50 51 52 53 53 53 53 53 53 52 52 52 52 53 53 54 55 55 54 53 54 56 56 56 56 57 59 60 60 59 58 58 57
44 45 45 45 45 46 47 49 51 53 52 50 49 48 46 43 42 40 39 39 39 39 40 42 42 41 41 41 43 44 45 45 46 47 48 48 49 50 51 51 52 53 53 54 54 55 54 54 54 54 54 54 53 54 55 56 57 57 57 56 55 56 58 60 59 58 58 60 61 62 62 61 60 59
49 49 49 49 49 50 51 53 55 54 51 49 48 48 46 44 42 42 41 41 41 41 43 45 45 44 42 43 45 46 46 47 48 50 51 52 52 53 54 54 54 55 55 55 55 56 56 56 56 55 56 56 56 57 58 58 58 58 58 58 58 58 60 62 62 59 59 60 61 62 61 61 60 59
Wind_Direction
65 54 44 36 30 25 7 350 343 339 342 351 5 20 31 37 41 45 46 48 51 55 57 57 56 55 54 53 53 53 52 48 40 30 22 17 15 14 10 7 7 8 6 4 0 358 359 2 4 5 4 2 359 357 356 356 356 356 356 356 356 356 355 355 354 353 352 351 351 350 349 349 349 348
54 42 34 26 23 24 21 9 351 335 325 326 343 10 31 39 43 47 50 52 54 57 60 60 59 57 55 53 52 52 51 44 34 23 16 15 15 12 7 2 360 2 4 5 2 359 360 1 2 3 3 1 360 359 358 357 357 357 357 357 357 357 356 356 355 354 353 353 353 352 351 350 350 349
36 29 22 16 13 16 21 20 9 351 323 307 318 356 29 43 49 55 59 61 60 60 59 57 56 55 54 53 50 48 46 39 31 19 11 11 11 9 3 356 352 355 1 3 2 1 2 3 4 4 2 2 1 1 0 359 359 359 359 359 359 358 358 357 356 355 354 354 354 354 353 353 353 352
10 10 7 4 4 5 13 20 19 12 349 304 294 329 38 58 64 68 70 69 64 58 57 56 54 52 52 53 53 52 47 36 27 16 8 5 6 5 2 360 4 7 5 5 5 5 6 7 7 5 3 3 3 2 1 0 360 0 0 360 359 359 359 358 357 356 355 355 354 353 354 354 355 355
342 345 350 351 353 355 2 14 20 20 12 320 241 216 150 106 102 95 82 71 62 49 47 50 53 54 53 54 54 52 44 34 24 13 5 3 6 10 13 19 25 20 10 8 7 8 8 8 7 5 4 4 3 2 1 1 0 360 359 359 359 360 360 359 358 357 357 356 354 353 353 353 355 355
323 325 332 336 340 343 349 4 18 21 15 350 198 194 177 159 154 144 126 87 62 44 38 42 49 59 66 60 51 45 40 31 20 14 17 25 28 27 26 26 25 19 13 11 8 7 7 7 6 5 5 5 3 1 0 0 360 359 358 358 359 359 360 359 359 358 357 356 354 353 352 351 353 354
307 311 316 319 325 329 334 347 8 19 7 291 205 195 187 187 185 169 166 169 106 42 35 43 53 75 79 60 49 50 42 27 18 22 32 40 41 38 33 26 21 18 15 12 8 6 7 7 6 5 4 3 1 360 359 359 358 358 357 357 358 358 358 358 358 357 356 355 354 353 352 351 351 352
299 301 301 303 308 312 314 326 342 356 330 262 223 212 205 205 208 198 194 195 187 241 315 348 56 77 74 60 59 61 44 26 24 34 38 34 27 25 25 23 20 17 15 11 8 7 8 7 5 4 3 1 359 357 357 357 357 356 356 356 356 356 356 356 355 355 354 354 353 352 351 351 351 351
295 295 293 289 290 290 292 303 308 298 268 245 228 219 220 222 224 226 229 222 208 242 265 260 256 59 62 80 98 63 32 23 26 31 31 28 22 17 15 17 17 15 13 10 6 6 7 5 2 1 0 359 358 356 355 355 355 355 354 354 355 355 354 354 353 352 352 351 351 350 349 350 350 350
292 290 285 276 271 272 270 270 272 264 252 241 229 222 222 229 236 244 252 252 246 249 243 238 240 252 342 92 114 69 26 20 24 22 19 19 20 16 12 12 12 12 10 7 3 3 5 4 0 357 356 356 355 354 353 353 353 352 352 353 354 354 353 352 351 350 349 348 347 347 347 347 347 347
288 283 275 264 256 253 252 249 248 248 243 236 229 224 223 226 236 248 260 265 264 258 241 238 246 249 271 9 109 68 33 21 17 14 11 11 12 11 8 5 5 8 8 4 359 359 2 1 357 354 353 353 352 351 351 351 350 350 350 350 350 351 352 352 351 349 347 346 345 345 345 344 343 343
285 277 268 257 248 243 240 238 238 241 242 237 230 227 225 225 231 244 259 270 273 271 260 257 265 270 277 301 318 40 30 19 9 1 357 0 5 5 2 357 357 2 5 2 355 353 358 359 354 351 350 349 347 346 346 347 348 347 346 346 346 346 348 350 351 350 347 345 344 344 343 342 340 339
287 279 274 263 249 240 235 232 231 236 242 242 235 230 229 228 229 239 255 268 274 275 273 272 278 284 289 298 303 315 347 0 0 351 339 335 347 360 2 354 351 355 360 360 354 349 352 355 352 348 346 345 344 343 344 345 345 343 342 342 341 340 342 346 350 350 348 346 345 345 344 342 339 337
289 284 281 274 259 246 237 230 226 231 240 244 240 234 234 233 230 235 249 262 269 272 275 276 277 283 288 292 294 300 314 327 337 342 335 319 315 333 351 351 346 346 349 353 350 345 344 348 348 344 343 343 342 341 342 341 340 340 340 338 336 336 340 343 345 345 345 346 347 346 345 342 339 337
289 288 285 280 270 256 245 234 225 226 235 243 243 238 236 235 233 235 244 255 263 268 272 273 272 274 280 284 287 291 301 312 317 327 333 322 303 304 324 338 336 334 338 342 343 339 336 340 342 340 340 341 340 339 339 339 339 339 338 336 336 338 340 339 339 339 341 344 346 347 346 343 340 337
283 285 283 280 273 262 252 243 230 224 229 237 243 242 239 237 235 237 244 251 258 266 269 271 272 271 273 280 284 285 290 300 305 312 323 326 310 294 300 313 319 322 327 333 337 334 330 332 337 336 336 338 337 334 335 336 336 336 336 337 337 338 338 336 335 336 338 341 343 345 345 343 341 338
275 276 276 276 273 265 257 249 236 228 227 232 238 241 241 240 237 237 243 249 256 262 265 267 270 270 271 277 282 284 287 291 295 299 308 315 313 302 294 296 303 310 316 322 330 331 327 327 331 331 331 333 332 331 332 333 335 337 338 337 337 337 337 336 335 335 336 338 340 341 341 341 340 338
268 269 271 272 272 268 261 253 242 232 228 230 234 237 240 243 241 239 242 247 254 260 262 263 266 270 273 277 281 285 289 291 292 293 295 299 306 307 300 294 294 300 307 313 322 326 322 323 325 325 326 329 329 329 331 333 336 339 339 337 337 338 338 336 335 335 336 337 338 338 338 338 338 337
265 267 269 269 270 270 265 256 246 238 232 231 234 237 238 242 244 242 243 247 252 257 260 261 264 270 275 278 281 285 289 292 293 293 291 289 293 301 301 294 292 294 299 306 314 317 316 318 322 323 325 327 328 329 331 333 335 338 339 339 339 338 337 336 336 337 336 336 336 336 336 336 336 336
265 267 268 269 271 271 267 259 251 243 237 233 235 238 239 240 243 244 245 249 253 256 259 262 265 270 274 278 282 286 289 292 292 291 288 284 285 294 299 295 291 291 293 300 307 312 314 316 319 322 324 325 326 328 330 331 334 338 339 339 337 337 337 338 337 336 335 334 333 333 334 334 334 334
263 267 268 270 273 273 270 264 256 249 242 237 236 239 241 240 239 242 245 249 253 255 258 261 263 267 273 278 283 287 289 289 288 287 287 285 287 296 301 298 293 290 291 299 307 310 312 313 314 318 323 324 324 326 329 331 334 336 337 336 335 337 338 337 335 334 333 332 332 332 332 332 332 332
261 265 268 271 274 275 274 270 263 257 249 241 238 240 243 243 240 240 244 247 250 255 259 262 266 270 275 281 286 290 291 290 289 289 291 291 293 299 303 300 295 291 292 299 305 308 310 311 312 316 323 325 324 326 329 331 333 334 334 335 335 336 336 335 334 333 333 333 332 332 332 333 333 332
260 264 268 271 273 274 275 274 269 263 257 248 242 241 244 244 242 244 249 251 253 257 260 264 269 275 280 284 288 291 291 292 293 293 294 295 295 298 302 301 297 294 295 299 301 304 306 308 311 315 321 325 326 327 329 330 330 332 334 336 336 335 335 334 333 333 333 332 331 331 333 334 334 334
259 264 266 269 271 272 274 274 271 266 261 254 247 244 244 243 242 246 253 257 259 261 262 264 267 272 277 281 285 287 289 291 292 293 293 294 294 296 300 302 300 297 296 298 298 300 302 306 310 315 320 324 326 327 328 328 329 332 335 335 334 333 333 333 333 332 332 331 331 331 332 333 334 334
258 262 264 266 268 271 273 273 270 266 263 259 253 248 244 243 243 247 253 258 262 264 265 265 266 269 273 277 280 284 288 291 292 291 288 287 287 291 296 299 299 298 298 299 299 299 299 302 307 314 319 322 324 326 328 329 330 332 334 333 331 330 331 331 332 331 331 330 330 331 332 333 334 333
256 259 261 264 267 271 274 273 270 267 264 263 258 251 246 246 248 252 255 260 263 265 265 265 266 269 272 273 277 282 288 291 290 288 285 283 283 288 292 294 295 296 299 302 303 301 298 298 302 310 317 320 323 325 327 328 329 330 330 329 328 328 329 330 330 330 329 329 329 331 332 333 333 332
254 256 258 263 267 271 273 272 270 269 267 264 260 255 253 253 254 255 257 260 263 265 267 269 269 269 269 271 276 281 286 287 287 287 286 285 285 287 291 293 294 296 298 301 304 305 303 301 305 312 317 319 321 323 324 325 326 327 327 327 326 326 327 329 329 330 330 330 330 331 331 332 332 331
252 254 258 261 265 268 270 271 271 272 272 267 263 261 261 262 261 261 261 263 266 267 270 273 273 271 270 272 277 280 281 283 286 288 287 285 285 288 293 295 295 296 297 300 304 307 308 309 311 313 316 318 319 320 321 322 323 324 324 325 326 327 328 329 330 331 331 331 331 330 331 331 332 331
250 254 258 260 263 264 266 269 270 271 270 267 265 265 266 267 269 269 269 271 273 273 273 274 272 271 272 275 278 278 280 284 288 288 286 285 287 290 293 294 295 296 298 300 303 306 308 309 311 313 315 316 318 318 320 321 322 323 324 326 327 329 329 330 331 331 331 330 330 330 330 330 330 330
251 254 257 259 261 262 263 264 266 267 268 267 266 266 268 269 271 272 273 274 274 273 272 271 270 271 274 275 275 277 281 286 288 286 284 285 288 290 291 291 293 296 298 299 302 305 307 309 311 313 315 316 317 317 318 320 322 324 325 327 328 329 329 329 329 329 329 330 330 329 329 329 329 329
251 252 254 257 258 259 256 256 259 263 267 269 269 269 270 272 273 274 274 274 273 273 271 271 271 272 274 274 274 278 282 284 281 278 281 286 289 289 289 290 293 295 297 299 302 306 308 310 312 313 314 315 316 317 318 320 322 324 325 326 327 327 327 327 327 327 327 328 329 329 329 329 330 330
249 250 252 254 253 251 249 249 253 260 266 273 276 276 275 275 276 276 276 274 274 272 271 271 273 274 274 274 275 278 278 275 271 272 280 288 290 290 289 291 293 295 296 299 302 305 308 310 311 313 314 315 315 316 317 319 321 322 323 325 325 325 325 325 325 325 326 327 328 329 329 329 329 330
246 247 248 248 247 248 250 254 259 265 270 277 283 283 281 280 279 278 276 275 274 273 272 272 272 270 267 266 268 270 271 270 270 274 280 285 286 288 289 290 291 292 294 298 301 304 306 308 311 312 313 313 314 315 317 318 319 321 322 323 323 323 323 323 323 324 325 327 328 328 327 327 327 327
242 243 243 244 247 251 256 262 267 269 272 277 280 280 281 282 282 281 278 275 273 270 269 268 266 265 267 269 270 273 275 274 271 273 278 283 284 285 287 288 288 291 295 299 302 304 306 308 310 312 312 312 313 315 316 317 319 321 321 321 321 322 322 322 323 324 325 327 329 328 327 325 324 324
240 241 242 245 250 256 261 265 268 270 271 273 275 277 280 282 283 282 280 277 276 275 274 273 272 276 282 285 283 282 285 285 280 276 278 282 285 286 287 288 290 294 297 300 302 304 305 307 310 311 311 312 313 314 315 316 317 318 318 318 319 320 321 321 322 323 325 327 328 328 327 325 323 322
241 243 246 250 255 260 264 267 269 270 272 274 276 278 281 283 283 283 283 285 288 289 286 281 280 282 286 287 285 284 289 292 289 283 280 282 285 287 288 290 292 296 298 300 301 303 305 307 309 310 310 310 311 312 313 314 315 316 316 316 318 319 320 320 321 322 324 325 326 327 327 325 323 322
243 247 251 255 259 264 268 270 272 273 274 277 278 280 281 283 284 286 287 289 290 288 283 281 279 279 281 283 284 284 286 287 286 284 284 285 286 287 289 291 293 295 298 299 300 301 303 306 307 308 307 308 309 311 311 312 313 313 314 315 316 318 319 319 320 321 322 323 324 324 325 325 324 322
248 252 256 259 263 266 269 270 271 272 275 277 278 279 281 283 285 286 286 286 284 282 282 283 282 282 283 285 286 286 284 282 280 280 282 284 286 287 289 291 293 295 297 299 300 301 302 305 306 307 307 308 309 309 310 310 311 311 313 314 314 315 317 319 319 320 320 321 320 320 320 321 322 321
254 257 259 261 263 265 266 268 270 272 275 277 278 279 280 282 283 283 282 283 285 287 287 286 285 284 285 287 287 286 285 283 281 281 283 285 287 289 291 292 294 296 298 299 300 301 303 305 306 307 306 306 307 308 308 309 309 310 311 312 312 313 316 318 317 317 318 318 317 316 315 316 318 319
257 259 259 261 263 264 266 268 271 272 274 275 276 277 279 281 282 282 281 283 287 289 289 288 285 282 281 282 283 283 283 283 282 281 283 285 288 291 293 294 295 297 298 299 300 301 302 304 305 305 305 305 306 306 307 307 308 308 309 310 309 311 314 315 314 314 315 315 315 314 313 314 315 316
258 259 260 261 263 265 267 269 271 273 274 274 274 275 279 282 282 280 279 281 284 286 287 288 285 281 280 282 284 283 282 282 282 282 283 285 289 292 294 294 296 297 297 298 299 300 302 303 303 303 303 303 303 304 304 305 306 306 307 308 308 308 309 310 311 311 312 313 313 313 313 313 314 314
258 260 261 263 264 266 268 270 271 272 273 274 275 276 279 280 278 276 276 278 280 281 283 284 282 281 282 284 284 284 283 283 283 284 285 287 288 291 292 293 295 295 296 297 298 299 300 301 301 300 300 300 301 302 304 305 305 305 306 306 306 306 307 308 308 309 309 311 311 312 312 312 312 312
257 259 262 264 267 268 269 270 271 271 272 273 274 276 278 277 274 272 273 275 276 278 280 280 279 279 281 283 283 283 282 282 283 284 285 286 288 290 292 293 294 295 295 296 297 298 298 298 298 297 298 299 300 302 304 305 305 305 305 305 306 306 306 306 307 308 309 310 310 311 311 311 311 311
258 261 263 265 267 268 270 271 271 270 270 272 273 275 277 278 276 274 273 274 276 278 278 278 278 279 281 282 282 281 281 282 284 285 286 288 289 291 292 293 293 293 294 295 296 296 297 296 296 297 298 299 300 301 303 304 304 304 304 304 305 306 306 305 305 306 307 309 310 310 311 311 311 311
261 262 264 265 266 268 270 272 271 269 268 271 273 274 275 276 275 273 273 275 276 276 276 276 277 279 280 279 279 280 280 282 283 285 286 288 289 290 291 291 292 292 293 294 295 295 296 296 296 297 298 298 299 301 302 303 303 303 303 304 305 306 306 305 305 305 306 308 309 310 310 310 311 311
Height
5971 5971 5971 5971 5971 5971 5971 5971 5971 5972 5972 5972 5973 5974 5974 5974 5974 5974 5974 5974 5975 5975 5975 5975 5976 5976 5976 5976 5976 5975 5975 5974 5973 5973 5972 5971 5970 5970 5969 5967 5966 5965 5964 5962 5961 5960 5958 5956 5955 5953 5951 5949 5947 5946 5944 5942 5940 5938 5936 5934 5932 5929 5927 5924 5922 5920 5917 5915 5912 5910 5907 5905 5903 5901
5971 5971 5971 5971 5971 5971 5971 5971 5971 5971 5972 5972 5973 5974 5974 5974 5974 5975 5975 5975 5975 5976 5976 5976 5976 5976 5976 5976 5976 5975 5975 5974 5973 5972 5972 5972 5971 5971 5969 5968 5966 5965 5964 5963 5962 5960 5959 5957 5956 5954 5952 5950 5948 5946 5944 5942 5940 5938 5936 5934 5932 5929 5927 5924 5922 5919 5917 5914 5912 5909 5907 5904 5902 5900
5971 5971 5971 5971 5971 5971 5971 5971 5971 5971 5971 5972 5973 5974 5974 5975 5975 5975 5975 5975 5976 5976 5977 5977 5977 5977 5977 5976 5976 5975 5974 5974 5973 5973 5973 5973 5973 5972 5970 5968 5967 5966 5965 5963 5962 5961 5959 5958 5956 5954 5953 5951 5948 5946 5944 5942 5940 5938 5935 5933 5931 5929 5927 5924 5922 5919 5916 5914 5911 5909 5907 5904 5902 5900
5971 5971 5971 5971 5971 5971 5971 5971 5971 5971 5971 5972 5973 5973 5974 5975 5975 5975 5975 5975 5976 5976 5977 5977 5977 5977 5977 5976 5976 5975 5975 5975 5974 5974 5973 5973 5972 5971 5970 5968 5966 5965 5965 5963 5962 5961 5959 5958 5956 5954 5953 5950 5948 5946 5944 5941 5939 5937 5935 5932 5930 5928 5926 5924 5921 5918 5915 5913 5910 5908 5906 5904 5902 5899
5971 5971 5971 5971 5971 5971 5971 5971 5971 5971 5971 5972 5972 5973 5974 5975 5975 5975 5975 5976 5976 5976 5977 5977 5977 5977 5977 5976 5976 5976 5976 5975 5975 5975 5974 5973 5972 5970 5969 5967 5966 5965 5964 5963 5961 5960 5958 5957 5956 5954 5952 5950 5947 5945 5943 5940 5938 5936 5934 5932 5930 5927 5925 5923 5920 5917 5915 5912 5909 5907 5905 5903 5901 5899
5970 5971 5971 5971 5971 5971 5971 5971 5970 5971 5971 5971 5972 5973 5974 5974 5975 5975 5976 5976 5976 5976 5976 5977 5977 5977 5977 5977 5976 5976 5976 5976 5975 5975 5974 5972 5971 5970 5969 5967 5966 5965 5964 5963 5961 5960 5958 5957 5955 5953 5951 5949 5946 5944 5941 5939 5937 5935 5933 5930 5928 5926 5924 5922 5919 5917 5914 5911 5909 5907 5904 5902 5900 5898
5970 5970 5970 5971 5971 5971 5970 5970 5970 5970 5970 5971 5972 5972 5973 5974 5975 5975 5976 5976 5976 5976 5977 5977 5977 5977 5977 5977 5976 5976 5976 5976 5975 5974 5973 5972 5971 5970 5969 5968 5967 5965 5964 5963 5962 5960 5958 5956 5954 5952 5949 5947 5945 5942 5940 5938 5936 5933 5931 5929 5926 5924 5923 5920 5918 5916 5913 5911 5908 5906 5903 5901 5899 5897
5970 5970 5970 5970 5970 5970 5970 5970 5970 5970 5970 5970 5971 5972 5973 5973 5974 5975 5975 5976 5976 5976 5976 5976 5977 5977 5977 5977 5976 5976 5976 5976 5975 5974 5973 5972 5971 5969 5968 5967 5966 5965 5964 5963 5961 5960 5958 5956 5954 5951 5949 5947 5944 5941 5939 5936 5934 5931 5929 5927 5925 5923 5921 5919 5917 5914 5912 5910 5907 5904 5902 5900 5898 5896
5969 5969 5969 5969 5970 5970 5970 5970 5970 5970 5970 5970 5971 5971 5972 5972 5973 5974 5975 5976 5976 5976 5976 5976 5976 5976 5976 5976 5976 5976 5976 5975 5974 5973 5973 5972 5970 5969 5968 5967 5966 5965 5964 5962 5961 5959 5957 5955 5953 5951 5949 5947 5944 5941 5938 5935 5933 5930 5928 5926 5924 5922 5920 5917 5915 5913 5911 5908 5906 5903 5901 5898 5897 5894
5969 5969 5969 5969 5969 5969 5969 5969 5969 5969 5970 5970 5970 5971 5971 5972 5972 5973 5974 5975 5975 5976 5976 5975 5976 5976 5976 5976 5976 5976 5975 5974 5973 5973 5972 5971 5970 5968 5967 5966 5965 5964 5963 5961 5960 5958 5957 5955 5953 5950 5948 5946 5944 5941 5938 5935 5933 5930 5927 5925 5922 5921 5919 5917 5915 5912 5910 5908 5905 5902 5900 5897 5895 5893
5968 5968 5968 5968 5968 5968 5968 5968 5968 5969 5969 5969 5969 5970 5970 5971 5972 5972 5973 5974 5974 5974 5975 5975 5975 5975 5975 5975 5975 5975 5975 5974 5973 5972 5971 5970 5969 5968 5967 5966 5965 5964 5963 5961 5960 5958 5957 5955 5953 5951 5948 5946 5944 5941 5938 5936 5933 5931 5928 5925 5922 5920 5918 5916 5914 5912 5909 5907 5905 5902 5899 5896 5893 5891
5967 5967 5967 5967 5967 5967 5967 5967 5967 5968 5968 5968 5969 5969 5970 5970 5971 5971 5972 5972 5973 5973 5973 5973 5974 5974 5974 5974 5974 5974 5974 5973 5972 5972 5971 5970 5969 5968 5967 5966 5965 5964 5963 5962 5960 5958 5957 5955 5953 5951 5949 5947 5944 5942 5939 5936 5934 5931 5928 5926 5923 5920 5918 5916 5913 5911 5909 5906 5904 5901 5898 5895 5893 5890
5966 5966 5966 5966 5966 5966 5966 5966 5966 5966 5967 5967 5967 5968 5969 5969 5970 5971 5971 5971 5971 5971 5972 5972 5972 5972 5973 5973 5972 5972 5972 5972 5972 5971 5970 5969 5968 5968 5967 5965 5964 5963 5962 5961 5959 5957 5956 5955 5953 5951 5949 5947 5944 5942 5939 5936 5934 5931 5928 5926 5923 5920 5917 5915 5912 5910 5908 5905 5902 5900 5897 5895 5892 5889
5965 5965 5965 5965 5965 5965 5965 5965 5965 5965 5965 5966 5966 5967 5967 5968 5969 5970 5970 5970 5970 5970 5971 5971 5971 5971 5971 5971 5971 5971 5971 5971 5970 5970 5969 5968 5967 5966 5966 5964 5963 5961 5960 5960 5958 5956 5955 5954 5953 5950 5948 5946 5943 5940 5938 5936 5934 5931 5929 5926 5923 5920 5916 5913 5911 5908 5906 5903 5901 5898 5896 5893 5890 5888
5963 5963 5963 5963 5964 5964 5964 5964 5964 5964 5964 5964 5965 5965 5966 5967 5968 5968 5969 5969 5970 5970 5969 5969 5969 5970 5970 5970 5970 5970 5970 5969 5969 5968 5967 5967 5966 5965 5964 5963 5962 5960 5959 5958 5957 5955 5953 5952 5951 5949 5947 5945 5942 5940 5938 5935 5933 5930 5928 5925 5922 5918 5915 5912 5909 5907 5904 5901 5899 5896 5894 5891 5889 5886
5962 5962 5962 5962 5962 5962 5962 5963 5963 5963 5963 5963 5963 5964 5964 5965 5966 5967 5968 5968 5968 5968 5968 5968 5968 5968 5968 5968 5968 5968 5968 5968 5967 5966 5965 5965 5964 5964 5963 5961 5960 5958 5957 5956 5955 5953 5951 5950 5949 5947 5945 5943 5941 5939 5936 5934 5932 5930 5927 5924 5921 5917 5914 5911 5908 5905 5902 5899 5896 5894 5892 5889 5887 5884
5960 5960 5960 5960 5961 5961 5961 5961 5962 5962 5962 5962 5962 5963 5963 5963 5964 5965 5966 5966 5967 5967 5967 5967 5966 5966 5967 5967 5966 5966 5966 5966 5965 5964 5964 5963 5962 5962 5961 5959 5957 5956 5955 5954 5954 5952 5949 5947 5946 5945 5943 5941 5939 5937 5935 5932 5930 5928 5925 5922 5920 5917 5914 5910 5907 5904 5900 5897 5894 5892 5889 5887 5885 5882
5958 5958 5958 5959 5959 5959 5959 5960 5960 5960 5961 5961 5961 5961 5962 5962 5962 5963 5964 5965 5965 5965 5966 5965 5965 5964 5965 5964 5964 5963 5963 5963 5963 5962 5962 5961 5960 5960 5959 5957 5955 5954 5952 5951 5952 5951 5948 5946 5945 5943 5941 5939 5936 5934 5932 5930 5927 5925 5923 5920 5917 5915 5912 5909 5906 5903 5899 5896 5893 5890 5887 5885 5882 5879
5956 5956 5957 5957 5957 5957 5958 5958 5958 5959 5959 5960 5960 5960 5960 5960 5960 5961 5962 5962 5963 5964 5964 5964 5964 5963 5962 5962 5961 5961 5960 5960 5960 5960 5960 5959 5958 5958 5957 5955 5953 5952 5950 5949 5949 5949 5947 5945 5943 5941 5938 5937 5934 5932 5930 5927 5925 5923 5920 5917 5915 5912 5910 5907 5904 5901 5898 5895 5892 5889 5886 5883 5879 5876
5954 5954 5955 5955 5955 5956 5956 5956 5957 5957 5957 5958 5958 5958 5958 5958 5959 5959 5960 5961 5961 5962 5962 5962 5962 5961 5960 5960 5959 5959 5958 5958 5958 5957 5957 5956 5956 5955 5954 5952 5951 5949 5948 5947 5946 5946 5945 5943 5942 5939 5936 5934 5932 5930 5927 5925 5922 5920 5917 5914 5912 5910 5907 5904 5901 5898 5896 5893 5890 5888 5885 5882 5878 5874
5952 5952 5953 5953 5954 5954 5954 5955 5955 5955 5956 5956 5956 5956 5956 5957 5957 5958 5958 5959 5959 5959 5960 5960 5960 5959 5958 5958 5957 5957 5956 5955 5955 5954 5954 5953 5952 5952 5951 5949 5948 5947 5945 5944 5943 5943 5942 5941 5939 5938 5936 5932 5929 5928 5926 5923 5920 5917 5915 5912 5909 5907 5904 5902 5899 5896 5894 5891 5888 5886 5883 5880 5876 5873
5949 5950 5951 5951 5952 5952 5952 5953 5953 5953 5954 5954 5954 5954 5955 5955 5955 5956 5956 5956 5957 5957 5957 5957 5957 5957 5956 5956 5955 5954 5953 5952 5951 5951 5950 5950 5949 5948 5946 5945 5945 5944 5942 5941 5940 5939 5938 5937 5935 5935 5934 5932 5927 5924 5922 5920 5918 5915 5913 5909 5906 5903 5901 5898 5896 5893 5890 5887 5884 5882 5879 5876 5873 5870
5947 5948 5948 5949 5949 5950 5950 5950 5950 5951 5951 5951 5952 5952 5953 5953 5953 5953 5953 5954 5954 5955 5954 5954 5954 5954 5954 5953 5953 5952 5951 5949 5949 5948 5947 5946 5945 5944 5942 5941 5941 5940 5939 5938 5937 5936 5935 5933 5931 5930 5930 5929 5927 5923 5920 5917 5914 5912 5909 5906 5903 5900 5898 5895 5892 5889 5886 5883 5880 5877 5874 5872 5869 5866
5944 5945 5946 5946 5947 5947 5947 5947 5948 5948 5948 5949 5949 5950 5951 5951 5951 5951 5951 5951 5951 5952 5952 5952 5952 5951 5951 5951 5950 5949 5948 5947 5946 5946 5945 5943 5941 5940 5939 5937 5937 5936 5935 5934 5933 5932 5931 5929 5927 5925 5924 5923 5923 5922 5919 5915 5911 5908 5905 5902 5899 5897 5895 5892 5889 5886 5883 5880 5877 5873 5870 5866 5863 5861
5941 5942 5943 5943 5943 5944 5944 5944 5944 5945 5945 5946 5946 5947 5948 5948 5948 5948 5948 5948 5949 5949 5949 5949 5949 5948 5948 5948 5947 5946 5945 5945 5944 5942 5941 5940 5938 5937 5936 5934 5933 5932 5930 5929 5928 5927 5926 5924 5923 5921 5920 5918 5917 5916 5915 5912 5908 5905 5902 5899 5896 5894 5892 5889 5886 5883 5880 5876 5873 5870 5866 5862 5859 5855
5938 5939 5939 5940 5940 5940 5940 5941 5941 5942 5942 5942 5943 5944 5944 5944 5944 5944 5945 5945 5945 5945 5945 5945 5945 5945 5944 5944 5943 5942 5941 5940 5939 5937 5936 5935 5935 5934 5933 5931 5930 5928 5927 5925 5923 5922 5921 5920 5919 5917 5916 5914 5913 5911 5909 5907 5905 5902 5900 5897 5894 5891 5888 5886 5883 5880 5877 5873 5870 5866 5863 5859 5855 5851
5934 5935 5936 5937 5937 5937 5937 5937 5937 5938 5939 5939 5940 5940 5940 5940 5940 5940 5941 5941 5941 5941 5941 5941 5941 5940 5939 5938 5938 5937 5936 5935 5933 5932 5932 5931 5930 5930 5929 5927 5926 5925 5923 5922 5920 5919 5917 5916 5915 5913 5911 5910 5909 5907 5906 5904 5901 5899 5897 5894 5891 5887 5884 5882 5879 5876 5873 5869 5866 5862 5859 5855 5852 5848
5930 5932 5933 5933 5933 5933 5933 5933 5934 5935 5935 5936 5936 5936 5936 5936 5936 5936 5937 5936 5936 5936 5936 5936 5936 5935 5933 5933 5932 5932 5931 5930 5929 5929 5928 5927 5926 5926 5925 5924 5922 5921 5920 5918 5917 5915 5914 5912 5911 5909 5907 5905 5904 5903 5902 5900 5898 5895 5893 5891 5888 5884 5880 5877 5874 5871 5868 5865 5861 5858 5854 5851 5848 5844
5927 5928 5929 5929 5930 5930 5930 5930 5930 5931 5931 5932 5932 5932 5932 5932 5932 5932 5932 5932 5932 5931 5931 5930 5929 5928 5927 5927 5927 5926 5926 5926 5926 5926 5925 5924 5924 5923 5922 5920 5919 5917 5916 5915 5913 5912 5910 5909 5907 5905 5903 5901 5900 5898 5897 5895 5893 5890 5888 5885 5883 5879 5875 5872 5869 5867 5864 5860 5857 5853 5850 5847 5844 5841
5924 5925 5925 5925 5926 5926 5927 5927 5927 5927 5927 5928 5928 5928 5928 5928 5928 5928 5928 5928 5927 5926 5925 5924 5922 5921 5921 5922 5922 5922 5923 5923 5923 5922 5922 5921 5920 5919 5918 5917 5915 5913 5912 5910 5909 5908 5907 5905 5903 5901 5899 5898 5896 5894 5892 5890 5887 5885 5882 5879 5876 5874 5871 5868 5865 5863 5860 5857 5852 5848 5845 5842 5839 5836
5920 5920 5921 5921 5922 5923 5923 5924 5924 5924 5924 5924 5924 5924 5924 5924 5924 5924 5923 5922 5921 5920 5919 5917 5916 5916 5917 5917 5918 5919 5920 5919 5919 5918 5917 5917 5916 5915 5914 5912 5911 5909 5908 5906 5905 5904 5902 5901 5899 5897 5895 5894 5892 5889 5887 5885 5882 5879 5877 5874 5871 5869 5867 5865 5862 5859 5857 5853 5849 5845 5840 5837 5835 5832
5915 5916 5917 5918 5919 5920 5920 5921 5921 5921 5921 5921 5921 5921 5920 5919 5919 5919 5918 5917 5916 5915 5913 5912 5912 5913 5913 5913 5913 5914 5914 5914 5913 5913 5913 5912 5911 5910 5909 5908 5907 5905 5904 5902 5901 5899 5898 5896 5895 5893 5891 5889 5887 5884 5882 5880 5877 5875 5872 5870 5867 5865 5862 5860 5858 5855 5852 5850 5846 5841 5837 5834 5831 5829
5911 5913 5914 5915 5916 5916 5917 5918 5918 5918 5918 5918 5918 5917 5917 5916 5915 5915 5914 5912 5911 5910 5909 5908 5908 5907 5906 5906 5907 5907 5907 5908 5908 5908 5907 5907 5906 5905 5905 5904 5903 5901 5900 5898 5897 5895 5894 5892 5890 5888 5886 5884 5882 5879 5877 5875 5872 5870 5868 5865 5863 5861 5858 5856 5853 5850 5848 5845 5842 5838 5834 5831 5828 5825
5908 5910 5911 5911 5912 5913 5914 5914 5915 5915 5915 5915 5915 5914 5913 5912 5911 5910 5909 5906 5905 5905 5904 5902 5901 5900 5902 5904 5905 5906 5905 5905 5904 5903 5902 5901 5900 5900 5900 5899 5898 5897 5895 5894 5892 5891 5889 5888 5886 5883 5881 5879 5876 5874 5872 5869 5867 5865 5863 5860 5858 5856 5853 5851 5848 5845 5843 5840 5838 5835 5831 5827 5824 5821
5905 5906 5907 5908 5909 5909 5910 5910 5911 5911 5911 5912 5911 5910 5909 5908 5906 5905 5903 5900 5899 5902 5903 5900 5898 5899 5902 5904 5906 5906 5905 5903 5901 5899 5898 5897 5896 5896 5896 5895 5894 5892 5890 5889 5887 5886 5884 5883 5881 5879 5876 5873 5871 5869 5867 5865 5863 5861 5858 5855 5853 5851 5849 5846 5843 5840 5838 5835 5833 5830 5828 5825 5821 5817
5902 5903 5904 5905 5905 5906 5906 5907 5907 5906 5906 5907 5907 5905 5905 5903 5900 5898 5897 5896 5898 5902 5903 5899 5896 5898 5899 5900 5901 5901 5901 5899 5897 5896 5894 5893 5892 5892 5891 5890 5889 5887 5885 5883 5882 5880 5879 5878 5876 5873 5871 5869 5867 5865 5863 5860 5858 5856 5853 5850 5848 5846 5844 5841 5838 5835 5833 5830 5828 5826 5823 5820 5817 5813
5898 5899 5900 5901 5901 5902 5902 5903 5902 5902 5902 5902 5902 5901 5900 5898 5895 5893 5892 5892 5893 5895 5894 5892 5892 5892 5893 5893 5894 5893 5894 5893 5892 5891 5890 5889 5888 5887 5886 5885 5884 5882 5880 5878 5876 5875 5874 5872 5871 5868 5866 5864 5862 5860 5858 5855 5853 5851 5848 5845 5843 5840 5838 5836 5833 5830 5827 5825 5822 5820 5817 5815 5812 5808
5895 5896 5896 5897 5897 5898 5898 5898 5898 5897 5897 5897 5897 5896 5895 5894 5892 5890 5887 5885 5884 5886 5888 5888 5889 5888 5887 5887 5887 5886 5886 5886 5886 5886 5885 5885 5884 5883 5881 5879 5878 5876 5874 5872 5870 5869 5868 5867 5865 5863 5860 5858 5856 5854 5852 5850 5848 5845 5843 5840 5837 5834 5832 5830 5828 5825 5822 5819 5816 5813 5810 5808 5805 5802
5891 5891 5892 5893 5893 5893 5893 5893 5893 5892 5892 5892 5891 5890 5890 5889 5888 5885 5883 5880 5879 5881 5882 5882 5883 5883 5882 5881 5881 5880 5879 5879 5879 5880 5879 5879 5878 5877 5876 5873 5872 5870 5868 5866 5864 5862 5861 5860 5859 5857 5854 5852 5850 5848 5845 5843 5841 5839 5837 5835 5832 5829 5827 5824 5821 5818 5816 5814 5810 5807 5803 5800 5797 5794
5886 5887 5888 5888 5888 5888 5888 5888 5888 5888 5887 5887 5886 5885 5885 5884 5883 5881 5879 5877 5875 5875 5875 5875 5876 5876 5875 5874 5874 5873 5873 5873 5873 5873 5873 5873 5872 5870 5869 5866 5864 5863 5861 5859 5858 5856 5855 5854 5852 5850 5848 5845 5844 5842 5839 5836 5834 5832 5831 5829 5826 5823 5821 5818 5815 5812 5810 5808 5806 5802 5798 5795 5791 5788
5881 5882 5883 5883 5882 5882 5883 5883 5883 5882 5881 5881 5881 5880 5880 5879 5878 5876 5875 5873 5872 5871 5871 5871 5870 5869 5868 5867 5867 5866 5866 5868 5867 5867 5867 5866 5864 5863 5861 5859 5857 5856 5855 5853 5852 5850 5848 5847 5845 5843 5841 5839 5837 5835 5833 5830 5828 5825 5823 5822 5820 5817 5814 5812 5809 5806 5804 5802 5799 5796 5793 5789 5785 5782
5875 5876 5877 5877 5877 5878 5878 5878 5877 5877 5876 5875 5874 5875 5875 5875 5872 5871 5870 5869 5868 5867 5867 5866 5865 5864 5862 5862 5861 5861 5861 5861 5861 5860 5860 5858 5856 5855 5854 5852 5851 5850 5848 5847 5846 5844 5842 5840 5838 5836 5835 5833 5831 5829 5826 5824 5821 5818 5815 5814 5813 5810 5807 5804 5802 5799 5796 5793 5791 5789 5786 5783 5779 5775
5870 5871 5871 5872 5873 5873 5873 5872 5871 5871 5870 5869 5868 5867 5868 5868 5867 5866 5866 5865 5864 5863 5862 5861 5860 5859 5858 5857 5857 5856 5856 5855 5854 5854 5853 5851 5850 5848 5847 5846 5845 5843 5841 5840 5839 5837 5836 5834 5831 5829 5828 5826 5824 5822 5819 5817 5814 5810 5807 5806 5805 5802 5799 5796 5794 5791 5787 5784 5781 5778 5776 5774 5771 5768
5864 5865 5866 5867 5867 5867 5866 5865 5865 5864 5864 5863 5863 5862 5861 5861 5861 5861 5860 5859 5859 5858 5857 5855 5854 5854 5854 5853 5851 5850 5850 5848 5847 5846 5845 5844 5843 5842 5840 5839 5838 5837 5835 5834 5832 5830 5829 5827 5824 5822 5820 5818 5817 5815 5812 5809 5806 5803 5800 5798 5797 5795 5791 5787 5786 5784 5780 5776 5772 5768 5765 5762 5759 5757
5858 5859 5860 5860 5860 5860 5859 5858 5857 5857 5857 5857 5857 5856 5855 5855 5855 5854 5854 5853 5853 5852 5850 5848 5848 5849 5849 5847 5845 5844 5844 5843 5841 5839 5838 5837 5836 5835 5834 5833 5831 5830 5828 5827 5825 5823 5821 5819 5817 5815 5813 5810 5808 5807 5805 5802 5798 5796 5793 5790 5788 5787 5784 5778 5776 5776 5774 5769 5765 5761 5757 5753 5750 5747